| time (UTC) | temp F | wind direction | speed MPH | gust MPH | rain 1hr in | rain 24hr in | rain mn in | humidity % | barometer mb |
| 20260509120049 | 71 | 0 | 1.0 | 4.0 | 0.00 | 0.00 | 0.00 | 45 | 1012.8 |
| 20260509114545 | 70 | 49 | 0.0 | 5.0 | 0.00 | 0.00 | 0.00 | 45 | 1012.9 |
| 20260509113056 | 70 | 0 | 0.0 | 9.0 | 0.00 | 0.00 | 0.00 | 44 | 1013.0 |
| 20260509111602 | 71 | 84 | 1.0 | 10.0 | 0.00 | 0.00 | 0.00 | 46 | 1013.2 |
| 20260509110049 | 70 | 29 | 1.0 | 8.0 | 0.00 | 0.00 | 0.00 | 47 | 1013.2 |
| 20260509104552 | 68 | 0 | 1.0 | 7.0 | 0.00 | 0.00 | 0.00 | 47 | 1013.4 |
| 20260509103101 | 70 | 163 | 0.0 | 8.0 | 0.00 | 0.00 | 0.00 | 46 | 1013.5 |
| 20260509101616 | 69 | 305 | 0.0 | 7.0 | 0.00 | 0.00 | 0.00 | 44 | 1013.8 |
| 20260509100047 | 68 | 0 | 0.0 | 3.0 | 0.00 | 0.00 | 0.00 | 48 | 1013.9 |
| 20260509094543 | 68 | 37 | 1.0 | 6.0 | 0.00 | 0.00 | 0.00 | 47 | 1014.0 |
| 20260509093044 | 67 | 68 | 2.0 | 10.0 | 0.00 | 0.00 | 0.00 | 49 | 1013.9 |
| 20260509091545 | 66 | 137 | 0.0 | 5.0 | 0.00 | 0.00 | 0.00 | 51 | 1014.0 |
| 20260509090043 | 66 | 0 | 0.0 | 7.0 | 0.00 | 0.00 | 0.00 | 53 | 1013.9 |
| 20260509084540 | 64 | 0 | 0.0 | 3.0 | 0.00 | 0.00 | 0.00 | 55 | 1014.0 |
| 20260509083042 | 64 | 360 | 0.0 | 5.0 | 0.00 | 0.00 | 0.00 | 56 | 1014.0 |
| 20260509081546 | 62 | 0 | 0.0 | 5.0 | 0.00 | 0.00 | 0.00 | 56 | 1013.9 |
| 20260509080042 | 61 | 153 | 0.0 | 5.0 | 0.00 | 0.00 | 0.00 | 63 | 1014.0 |
| 20260509074548 | 59 | 0 | 0.0 | 1.0 | 0.00 | 0.00 | 0.00 | 68 | 1014.0 |
| 20260509073050 | 58 | 105 | 0.0 | 4.0 | 0.00 | 0.00 | 0.00 | 70 | 1013.9 |
| 20260509071558 | 57 | 0 | 0.0 | 0.0 | 0.00 | 0.00 | 0.00 | 71 | 1014.1 |
| 20260509070047 | 56 | 0 | 0.0 | 0.0 | 0.00 | 0.00 | 0.00 | 73 | 1014.2 |
| 20260509064558 | 55 | 0 | 0.0 | 0.0 | 0.00 | 0.00 | 0.00 | 72 | 1014.3 |
| 20260509063047 | 55 | 0 | 0.0 | 0.0 | 0.00 | 0.00 | 0.00 | 70 | 1014.3 |
| 20260509061547 | 53 | 0 | 0.0 | 0.0 | 0.00 | 0.00 | 0.00 | 73 | 1014.0 |
| 20260509060044 | 51 | 0 | 0.0 | 0.0 | 0.00 | 0.00 | 0.00 | 75 | 1014.0 |
| 20260509054556 | 49 | 0 | 0.0 | 0.0 | 0.00 | 0.00 | 0.00 | 78 | 1014.0 |
| 20260509053049 | 48 | 0 | 0.0 | 0.0 | 0.00 | 0.00 | 0.00 | 80 | 1014.0 |
| 20260509051542 | 47 | 0 | 0.0 | 0.0 | 0.00 | 0.00 | 0.00 | 78 | 1013.9 |
| 20260509050042 | 47 | 0 | 0.0 | 0.0 | 0.00 | 0.00 | 0.00 | 77 | 1013.9 |
| 20260509044547 | 47 | 0 | 0.0 | 0.0 | 0.00 | 0.00 | 0.00 | 77 | 1013.7 |
| 20260509043043 | 47 | 0 | 0.0 | 0.0 | 0.00 | 0.00 | 0.00 | 76 | 1013.6 |
| 20260509041609 | 47 | 0 | 0.0 | 0.0 | 0.00 | 0.00 | 0.00 | 76 | 1013.5 |
| 20260509040041 | 47 | 0 | 0.0 | 0.0 | 0.00 | 0.00 | 0.00 | 76 | 1013.5 |
| 20260509034542 | 47 | 0 | 0.0 | 0.0 | 0.00 | 0.00 | 0.00 | 76 | 1013.3 |
| 20260509033043 | 47 | 0 | 0.0 | 0.0 | 0.00 | 0.00 | 0.00 | 75 | 1013.2 |
| 20260509031547 | 47 | 0 | 0.0 | 0.0 | 0.00 | 0.00 | 0.00 | 75 | 1013.3 |
| 20260509030045 | 47 | 0 | 0.0 | 0.0 | 0.00 | 0.00 | 0.00 | 76 | 1013.3 |
| 20260509024541 | 47 | 0 | 0.0 | 0.0 | 0.00 | 0.00 | 0.00 | 76 | 1013.3 |
| 20260509023104 | 47 | 0 | 0.0 | 0.0 | 0.00 | 0.00 | 0.00 | 75 | 1013.4 |
| 20260509021547 | 47 | 0 | 0.0 | 0.0 | 0.00 | 0.00 | 0.00 | 75 | 1013.2 |
| 20260509020053 | 47 | 0 | 0.0 | 0.0 | 0.00 | 0.00 | 0.00 | 75 | 1013.2 |
| 20260509014542 | 47 | 0 | 0.0 | 0.0 | 0.00 | 0.00 | 0.00 | 75 | 1013.3 |
| 20260509013046 | 47 | 0 | 0.0 | 0.0 | 0.00 | 0.00 | 0.00 | 74 | 1013.2 |
| 20260509011538 | 47 | 0 | 0.0 | 0.0 | 0.00 | 0.00 | 0.00 | 74 | 1013.0 |
| 20260509010044 | 47 | 0 | 0.0 | 0.0 | 0.00 | 0.00 | 0.00 | 74 | 1013.0 |
| 20260509004544 | 47 | 0 | 0.0 | 0.0 | 0.00 | 0.00 | 0.00 | 74 | 1013.0 |
| 20260509003043 | 47 | 0 | 0.0 | 0.0 | 0.00 | 0.00 | 0.00 | 74 | 1012.9 |
| 20260509001542 | 48 | 0 | 0.0 | 0.0 | 0.00 | 0.00 | 0.00 | 73 | 1013.2 |
| 20260509000046 | 48 | 0 | 0.0 | 0.0 | 0.00 | 0.00 | 0.00 | 71 | 1013.3 |
| 20260508234542 | 48 | 0 | 0.0 | 0.0 | 0.00 | 0.00 | 0.00 | 70 | 1013.4 |
| 20260508233044 | 48 | 0 | 0.0 | 0.0 | 0.00 | 0.00 | 0.00 | 70 | 1013.4 |
| 20260508231551 | 49 | 0 | 0.0 | 0.0 | 0.00 | 0.00 | 0.00 | 70 | 1013.4 |
| 20260508230050 | 49 | 0 | 0.0 | 0.0 | 0.00 | 0.00 | 0.00 | 70 | 1013.5 |
| 20260508224551 | 49 | 0 | 0.0 | 0.0 | 0.00 | 0.00 | 0.00 | 70 | 1013.5 |
| 20260508223047 | 49 | 0 | 0.0 | 0.0 | 0.00 | 0.00 | 0.00 | 70 | 1013.4 |
| 20260508221541 | 50 | 0 | 0.0 | 0.0 | 0.00 | 0.00 | 0.00 | 69 | 1013.5 |
| 20260508220048 | 50 | 0 | 0.0 | 0.0 | 0.00 | 0.00 | 0.00 | 68 | 1013.4 |
| 20260508214550 | 51 | 0 | 0.0 | 0.0 | 0.00 | 0.00 | 0.00 | 67 | 1013.4 |
| 20260508213043 | 51 | 0 | 0.0 | 0.0 | 0.00 | 0.00 | 0.00 | 67 | 1013.4 |
| 20260508211548 | 52 | 0 | 0.0 | 0.0 | 0.00 | 0.00 | 0.00 | 66 | 1013.2 |
| 20260508210044 | 52 | 0 | 0.0 | 0.0 | 0.00 | 0.00 | 0.00 | 66 | 1013.2 |
| 20260508204550 | 53 | 0 | 0.0 | 0.0 | 0.00 | 0.00 | 0.00 | 65 | 1013.2 |
| 20260508203040 | 53 | 0 | 0.0 | 0.0 | 0.00 | 0.00 | 0.00 | 64 | 1013.2 |
| 20260508201543 | 54 | 0 | 0.0 | 0.0 | 0.00 | 0.00 | 0.00 | 63 | 1013.2 |
| 20260508200104 | 55 | 0 | 0.0 | 0.0 | 0.00 | 0.00 | 0.00 | 62 | 1013.0 |
| 20260508194541 | 55 | 0 | 0.0 | 2.0 | 0.00 | 0.00 | 0.00 | 61 | 1013.0 |
| 20260508193103 | 56 | 0 | 0.0 | 3.0 | 0.00 | 0.00 | 0.00 | 60 | 1012.8 |
| 20260508191542 | 57 | 0 | 0.0 | 2.0 | 0.00 | 0.00 | 0.00 | 59 | 1012.6 |
| 20260508190040 | 58 | 94 | 0.0 | 2.0 | 0.00 | 0.00 | 0.00 | 58 | 1012.4 |
| 20260508184546 | 59 | 0 | 0.0 | 1.0 | 0.00 | 0.00 | 0.00 | 57 | 1012.2 |
| 20260508183057 | 60 | 0 | 0.0 | 6.0 | 0.00 | 0.00 | 0.00 | 56 | 1012.1 |
| 20260508181559 | 60 | 0 | 0.0 | 6.0 | 0.00 | 0.00 | 0.00 | 56 | 1012.0 |
| 20260508180043 | 60 | 71 | 1.0 | 7.0 | 0.00 | 0.00 | 0.00 | 55 | 1011.8 |
| 20260508174544 | 61 | 0 | 1.0 | 10.0 | 0.00 | 0.00 | 0.00 | 53 | 1011.7 |
| 20260508173049 | 62 | 52 | 1.0 | 8.0 | 0.00 | 0.00 | 0.00 | 52 | 1011.5 |
| 20260508171545 | 63 | 76 | 2.0 | 12.0 | 0.00 | 0.00 | 0.00 | 51 | 1011.5 |
| 20260508170052 | 63 | 0 | 1.0 | 10.0 | 0.00 | 0.00 | 0.00 | 51 | 1011.2 |
| 20260508164549 | 64 | 360 | 2.0 | 9.0 | 0.00 | 0.00 | 0.00 | 50 | 1011.3 |
| 20260508163047 | 64 | 0 | 0.0 | 7.0 | 0.00 | 0.00 | 0.00 | 50 | 1011.3 |
| 20260508161551 | 65 | 53 | 1.0 | 10.0 | 0.00 | 0.00 | 0.00 | 48 | 1011.3 |
| 20260508160041 | 67 | 65 | 0.0 | 8.0 | 0.00 | 0.00 | 0.00 | 47 | 1011.4 |
| 20260508154606 | 67 | 103 | 0.0 | 12.0 | 0.00 | 0.00 | 0.00 | 50 | 1011.3 |
| 20260508153049 | 67 | 0 | 0.0 | 6.0 | 0.00 | 0.00 | 0.00 | 46 | 1011.4 |
| 20260508151541 | 65 | 0 | 0.0 | 7.0 | 0.00 | 0.00 | 0.00 | 48 | 1011.5 |
| 20260508150047 | 64 | 0 | 0.0 | 4.0 | 0.00 | 0.00 | 0.00 | 50 | 1011.6 |
| 20260508144559 | 65 | 57 | 4.0 | 9.0 | 0.00 | 0.00 | 0.00 | 48 | 1011.8 |
| 20260508143043 | 67 | 76 | 1.0 | 8.0 | 0.00 | 0.00 | 0.00 | 49 | 1011.7 |
| 20260508141542 | 66 | 125 | 1.0 | 8.0 | 0.00 | 0.00 | 0.00 | 48 | 1011.7 |
| 20260508140043 | 67 | 0 | 0.0 | 10.0 | 0.00 | 0.00 | 0.00 | 47 | 1011.9 |
| 20260508134554 | 66 | 55 | 1.0 | 8.0 | 0.00 | 0.00 | 0.00 | 49 | 1012.1 |
| 20260508133051 | 66 | 360 | 0.0 | 8.0 | 0.00 | 0.00 | 0.00 | 51 | 1012.1 |
| 20260508131547 | 66 | 28 | 2.0 | 9.0 | 0.00 | 0.00 | 0.00 | 49 | 1012.1 |
| 20260508130042 | 64 | 0 | 1.0 | 8.0 | 0.00 | 0.00 | 0.00 | 52 | 1012.3 |
| 20260508124541 | 66 | 0 | 1.0 | 9.0 | 0.00 | 0.00 | 0.00 | 51 | 1012.4 |
| 20260508123051 | 65 | 0 | 1.0 | 9.0 | 0.00 | 0.00 | 0.00 | 52 | 1012.5 |
| 20260508121552 | 64 | 26 | 0.0 | 8.0 | 0.00 | 0.00 | 0.00 | 53 | 1012.6 |